Time,TemperatureF,DewpointF,PressureIn,WindDirection,WindDirectionDegrees,WindSpeedMPH,WindSpeedGustMPH,Humidity,HourlyPrecipIn,Conditions,Clouds,dailyrainin,SoftwareType,DateUTC
2013-06-21 00:11:00,68.6,67.0,30.18,SE,129,0.0,1.0,93,0.00,,,0.00,weatherlink.com 1.10,2013-06-21 05:11:00,
2013-06-21 00:26:00,68.3,67.0,30.18,SE,129,0.0,0.0,94,0.00,,,0.00,weatherlink.com 1.10,2013-06-21 05:26:00,
2013-06-21 00:41:00,68.3,67.0,30.18,SE,129,0.0,0.0,94,0.00,,,0.00,weatherlink.com 1.10,2013-06-21 05:41:00,
2013-06-21 00:57:00,68.0,66.0,30.18,SSE,158,0.0,0.0,94,0.00,,,0.00,weatherlink.com 1.10,2013-06-21 05:57:00,
2013-06-21 01:12:00,67.4,66.0,30.18,SSE,158,1.0,1.0,95,0.00,,,0.00,weatherlink.com 1.10,2013-06-21 06:12:00,
2013-06-21 01:27:00,67.3,66.0,30.18,SSE,158,0.0,1.0,95,0.00,,,0.00,weatherlink.com 1.10,2013-06-21 06:27:00,
2013-06-21 01:42:00,66.7,66.0,30.18,SSE,158,0.0,0.0,96,0.00,,,0.00,weatherlink.com 1.10,2013-06-21 06:42:00,
2013-06-21 01:57:00,66.2,65.0,30.18,SSE,158,0.0,0.0,96,0.00,,,0.00,weatherlink.com 1.10,2013-06-21 06:57:00,
2013-06-21 02:12:00,66.0,65.0,30.18,SSE,158,0.0,0.0,97,0.00,,,0.00,weatherlink.com 1.10,2013-06-21 07:12:00,
2013-06-21 02:27:00,65.7,65.0,30.18,SSE,158,0.0,0.0,97,0.00,,,0.00,weatherlink.com 1.10,2013-06-21 07:27:00,
2013-06-21 02:42:00,65.6,65.0,30.18,SSE,158,0.0,0.0,97,0.00,,,0.00,weatherlink.com 1.10,2013-06-21 07:42:00,
2013-06-21 02:57:00,65.4,65.0,30.19,SSE,158,0.0,0.0,98,0.00,,,0.00,weatherlink.com 1.10,2013-06-21 07:57:00,
2013-06-21 03:12:00,66.2,66.0,30.19,SSE,158,0.0,0.0,98,0.00,,,0.00,weatherlink.com 1.10,2013-06-21 08:12:00,
2013-06-21 03:27:00,66.2,66.0,30.19,SSE,158,0.0,0.0,98,0.00,,,0.00,weatherlink.com 1.10,2013-06-21 08:27:00,
2013-06-21 03:42:00,65.8,65.0,30.19,SSE,158,0.0,0.0,98,0.00,,,0.00,weatherlink.com 1.10,2013-06-21 08:42:00,
2013-06-21 03:57:00,65.3,65.0,30.19,SSE,158,0.0,0.0,98,0.00,,,0.00,weatherlink.com 1.10,2013-06-21 08:57:00,
2013-06-21 04:12:00,64.9,64.0,30.19,SSE,158,0.0,0.0,98,0.00,,,0.00,weatherlink.com 1.10,2013-06-21 09:12:00,
2013-06-21 04:27:00,64.5,64.0,30.19,SSE,158,0.0,0.0,98,0.00,,,0.00,weatherlink.com 1.10,2013-06-21 09:27:00,
2013-06-21 04:42:00,64.6,64.0,30.19,SSE,158,0.0,0.0,98,0.00,,,0.00,weatherlink.com 1.10,2013-06-21 09:42:00,
2013-06-21 04:57:00,64.5,64.0,30.19,SSE,158,0.0,0.0,98,0.00,,,0.00,weatherlink.com 1.10,2013-06-21 09:57:00,
2013-06-21 05:12:00,64.6,64.0,30.20,SSE,158,0.0,0.0,99,0.00,,,0.00,weatherlink.com 1.10,2013-06-21 10:12:00,
2013-06-21 05:27:00,64.8,65.0,30.20,SSE,158,0.0,0.0,99,0.00,,,0.00,weatherlink.com 1.10,2013-06-21 10:27:00,
2013-06-21 05:42:00,64.7,64.0,30.21,SSE,158,0.0,0.0,99,0.00,,,0.00,weatherlink.com 1.10,2013-06-21 10:42:00,
2013-06-21 05:57:00,64.3,64.0,30.21,SSE,158,0.0,0.0,99,0.00,,,0.00,weatherlink.com 1.10,2013-06-21 10:57:00,
2013-06-21 06:12:00,64.6,64.0,30.21,SSE,158,0.0,0.0,99,0.00,,,0.00,weatherlink.com 1.10,2013-06-21 11:12:00,
2013-06-21 06:27:00,65.0,65.0,30.22,SSE,158,0.0,0.0,99,0.00,,,0.00,weatherlink.com 1.10,2013-06-21 11:27:00,
2013-06-21 06:42:00,66.3,66.0,30.22,SSE,158,0.0,0.0,99,0.00,,,0.00,weatherlink.com 1.10,2013-06-21 11:42:00,
2013-06-21 06:57:00,68.7,68.0,30.22,SSE,158,0.0,0.0,99,0.00,,,0.00,weatherlink.com 1.10,2013-06-21 11:57:00,
2013-06-21 07:12:00,70.2,69.0,30.22,ESE,111,0.0,1.0,95,0.00,,,0.00,weatherlink.com 1.10,2013-06-21 12:12:00,
2013-06-21 07:27:00,71.3,68.0,30.23,East,96,2.0,4.0,89,0.00,,,0.00,weatherlink.com 1.10,2013-06-21 12:27:00,
2013-06-21 07:42:00,72.7,68.0,30.23,SE,124,2.0,3.0,85,0.00,,,0.00,weatherlink.com 1.10,2013-06-21 12:42:00,
2013-06-21 07:57:00,73.9,69.0,30.23,East,92,3.0,3.0,83,0.00,,,0.00,weatherlink.com 1.10,2013-06-21 12:57:00,
2013-06-21 08:12:00,74.0,69.0,30.24,SE,129,2.0,7.0,83,0.00,,,0.00,weatherlink.com 1.10,2013-06-21 13:12:00,
2013-06-21 08:27:00,75.2,69.0,30.24,ESE,107,3.0,5.0,80,0.00,,,0.00,weatherlink.com 1.10,2013-06-21 13:27:00,
2013-06-21 08:42:00,75.6,68.0,30.24,SE,136,7.0,9.0,78,0.00,,,0.00,weatherlink.com 1.10,2013-06-21 13:42:00,
2013-06-21 08:58:00,75.9,70.0,30.24,SSE,158,5.0,10.0,81,0.00,,,0.00,weatherlink.com 1.10,2013-06-21 13:58:00,
2013-06-21 09:13:00,76.2,69.0,30.24,SSE,156,7.0,11.0,79,0.00,,,0.00,weatherlink.com 1.10,2013-06-21 14:13:00,
2013-06-21 09:28:00,76.9,69.0,30.24,SE,135,4.0,7.0,76,0.00,,,0.00,weatherlink.com 1.10,2013-06-21 14:28:00,
2013-06-21 09:43:00,77.5,71.0,30.24,SE,145,5.0,7.0,79,0.00,,,0.00,weatherlink.com 1.10,2013-06-21 14:43:00,
2013-06-21 09:58:00,77.6,70.0,30.25,SE,124,2.0,10.0,77,0.00,,,0.00,weatherlink.com 1.10,2013-06-21 14:58:00,
2013-06-21 10:13:00,78.0,68.0,30.25,ESE,107,5.0,10.0,72,0.00,,,0.00,weatherlink.com 1.10,2013-06-21 15:13:00,
2013-06-21 10:28:00,78.7,68.0,30.25,SSE,149,8.0,9.0,70,0.00,,,0.00,weatherlink.com 1.10,2013-06-21 15:28:00,
2013-06-21 10:43:00,79.1,69.0,30.25,SSE,152,4.0,8.0,71,0.00,,,0.00,weatherlink.com 1.10,2013-06-21 15:43:00,
2013-06-21 10:58:00,78.9,68.0,30.25,ESE,103,7.0,9.0,70,0.00,,,0.00,weatherlink.com 1.10,2013-06-21 15:58:00,
2013-06-21 11:14:00,80.2,69.0,30.25,SSE,159,1.0,8.0,69,0.00,,,0.00,weatherlink.com 1.10,2013-06-21 16:14:00,
2013-06-21 11:43:00,79.9,68.0,30.25,ESE,116,2.0,5.0,68,0.00,,,0.00,weatherlink.com 1.10,2013-06-21 16:43:00,
2013-06-21 11:58:00,80.6,66.0,30.25,SE,134,6.0,9.0,62,0.00,,,0.00,weatherlink.com 1.10,2013-06-21 16:58:00,
2013-06-21 12:13:00,80.4,68.0,30.25,ESE,112,2.0,4.0,67,0.00,,,0.00,weatherlink.com 1.10,2013-06-21 17:13:00,
2013-06-21 12:43:00,80.7,70.0,30.24,East,100,3.0,4.0,70,0.00,,,0.00,weatherlink.com 1.10,2013-06-21 17:43:00,
2013-06-21 13:13:00,82.1,68.0,30.23,ESE,117,3.0,8.0,63,0.00,,,0.00,weatherlink.com 1.10,2013-06-21 18:13:00,
2013-06-21 13:28:00,82.0,70.0,30.22,ESE,105,2.0,8.0,66,0.00,,,0.00,weatherlink.com 1.10,2013-06-21 18:28:00,
2013-06-21 13:43:00,82.5,69.0,30.22,South,169,4.0,9.0,64,0.00,,,0.00,weatherlink.com 1.10,2013-06-21 18:43:00,
2013-06-21 13:58:00,82.5,69.0,30.22,SSE,162,3.0,7.0,63,0.00,,,0.00,weatherlink.com 1.10,2013-06-21 18:58:00,
2013-06-21 14:28:00,82.1,70.0,30.22,ESE,115,4.0,8.0,66,0.00,,,0.00,weatherlink.com 1.10,2013-06-21 19:28:00,
2013-06-21 14:43:00,83.1,69.0,30.21,ESE,120,3.0,7.0,62,0.00,,,0.00,weatherlink.com 1.10,2013-06-21 19:43:00,
2013-06-21 14:58:00,83.1,67.0,30.20,ESE,117,5.0,7.0,58,0.00,,,0.00,weatherlink.com 1.10,2013-06-21 19:58:00,
2013-06-21 15:13:00,83.5,67.0,30.20,SSE,148,5.0,9.0,57,0.00,,,0.00,weatherlink.com 1.10,2013-06-21 20:13:00,
2013-06-21 15:28:00,83.8,67.0,30.20,ESE,119,7.0,8.0,57,0.00,,,0.00,weatherlink.com 1.10,2013-06-21 20:28:00,
2013-06-21 15:58:00,83.9,67.0,30.19,East,89,3.0,8.0,57,0.00,,,0.00,weatherlink.com 1.10,2013-06-21 20:58:00,
2013-06-21 16:13:00,83.7,67.0,30.18,ESE,105,2.0,9.0,57,0.00,,,0.00,weatherlink.com 1.10,2013-06-21 21:13:00,
2013-06-21 16:28:00,83.8,68.0,30.18,SSE,148,2.0,6.0,59,0.00,,,0.00,weatherlink.com 1.10,2013-06-21 21:28:00,
2013-06-21 16:44:00,83.9,67.0,30.18,SSE,147,3.0,6.0,57,0.00,,,0.00,weatherlink.com 1.10,2013-06-21 21:44:00,
2013-06-21 16:59:00,84.4,66.0,30.17,SSE,166,1.0,6.0,54,0.00,,,0.00,weatherlink.com 1.10,2013-06-21 21:59:00,
2013-06-21 17:14:00,84.2,66.0,30.17,ESE,108,1.0,4.0,55,0.00,,,0.00,weatherlink.com 1.10,2013-06-21 22:14:00,
2013-06-21 17:29:00,84.3,67.0,30.16,SSE,153,1.0,3.0,56,0.00,,,0.00,weatherlink.com 1.10,2013-06-21 22:29:00,
2013-06-21 17:44:00,83.2,67.0,30.16,SE,127,4.0,8.0,59,0.00,,,0.00,weatherlink.com 1.10,2013-06-21 22:44:00,
2013-06-21 17:59:00,82.1,68.0,30.16,NE,34,2.0,3.0,62,0.00,,,0.00,weatherlink.com 1.10,2013-06-21 22:59:00,
2013-06-21 18:14:00,82.5,68.0,30.16,East,100,1.0,5.0,61,0.00,,,0.00,weatherlink.com 1.10,2013-06-21 23:14:00,
2013-06-21 18:29:00,82.3,68.0,30.15,NNE,30,4.0,5.0,63,0.00,,,0.00,weatherlink.com 1.10,2013-06-21 23:29:00,
2013-06-21 18:44:00,82.1,69.0,30.15,East,92,1.0,5.0,65,0.00,,,0.00,weatherlink.com 1.10,2013-06-21 23:44:00,
2013-06-21 18:59:00,82.8,69.0,30.15,East,79,0.0,2.0,64,0.00,,,0.00,weatherlink.com 1.10,2013-06-21 23:59:00,
2013-06-21 19:14:00,80.9,68.0,30.15,East,98,0.0,1.0,66,0.00,,,0.00,weatherlink.com 1.10,2013-06-22 00:14:00,
2013-06-21 19:29:00,79.2,68.0,30.16,East,98,0.0,1.0,69,0.00,,,0.00,weatherlink.com 1.10,2013-06-22 00:29:00,
2013-06-21 19:44:00,77.7,69.0,30.15,East,98,0.0,0.0,74,0.00,,,0.00,weatherlink.com 1.10,2013-06-22 00:44:00,
2013-06-21 19:59:00,75.9,69.0,30.15,East,99,0.0,0.0,78,0.00,,,0.00,weatherlink.com 1.10,2013-06-22 00:59:00,
2013-06-21 20:14:00,74.1,68.0,30.15,East,98,0.0,0.0,82,0.00,,,0.00,weatherlink.com 1.10,2013-06-22 01:14:00,
2013-06-21 20:29:00,72.8,68.0,30.16,East,98,0.0,0.0,86,0.00,,,0.00,weatherlink.com 1.10,2013-06-22 01:29:00,
2013-06-21 20:44:00,72.6,68.0,30.17,East,97,0.0,1.0,85,0.00,,,0.00,weatherlink.com 1.10,2013-06-22 01:44:00,
2013-06-21 20:59:00,72.0,68.0,30.17,East,98,0.0,0.0,87,0.00,,,0.00,weatherlink.com 1.10,2013-06-22 01:59:00,
2013-06-21 21:14:00,71.0,68.0,30.18,East,98,0.0,0.0,89,0.00,,,0.00,weatherlink.com 1.10,2013-06-22 02:14:00,
2013-06-21 21:29:00,70.3,68.0,30.19,East,99,0.0,0.0,91,0.00,,,0.00,weatherlink.com 1.10,2013-06-22 02:29:00,
2013-06-21 21:44:00,70.0,68.0,30.19,East,98,0.0,0.0,92,0.00,,,0.00,weatherlink.com 1.10,2013-06-22 02:44:00,
2013-06-21 21:59:00,69.6,68.0,30.19,East,98,0.0,0.0,93,0.00,,,0.00,weatherlink.com 1.10,2013-06-22 02:59:00,
2013-06-21 22:14:00,69.0,67.0,30.20,East,98,0.0,0.0,93,0.00,,,0.00,weatherlink.com 1.10,2013-06-22 03:14:00,
2013-06-21 22:29:00,68.4,67.0,30.20,East,99,0.0,0.0,95,0.00,,,0.00,weatherlink.com 1.10,2013-06-22 03:29:00,
2013-06-21 22:44:00,68.1,67.0,30.20,East,98,0.0,0.0,95,0.00,,,0.00,weatherlink.com 1.10,2013-06-22 03:44:00,
2013-06-21 22:59:00,68.3,67.0,30.20,East,99,0.0,0.0,96,0.00,,,0.00,weatherlink.com 1.10,2013-06-22 03:59:00,
2013-06-21 23:14:00,68.1,67.0,30.20,East,98,0.0,0.0,96,0.00,,,0.00,weatherlink.com 1.10,2013-06-22 04:14:00,
2013-06-21 23:29:00,67.3,66.0,30.20,East,98,0.0,0.0,96,0.00,,,0.00,weatherlink.com 1.10,2013-06-22 04:29:00,
2013-06-21 23:44:00,67.4,67.0,30.20,East,98,0.0,0.0,97,0.00,,,0.00,weatherlink.com 1.10,2013-06-22 04:44:00,
2013-06-21 23:59:00,67.2,66.0,30.20,East,99,0.0,0.0,97,0.00,,,0.00,weatherlink.com 1.10,2013-06-22 04:59:00,